Home   Weather   Thônex   Past weeks

Flag for Switzerland Past Weather in Thônex, Geneva, Switzerland — Yesterday and Last 2 Weeks

Now
77 °F

Sunny.


Feels Like: 78 °F
Forecast: 52 / 72 °F
Wind: 18 mph from Southwest

Location: Geneva Cointrin Airport

Current Time: Sep 29, 2016 at 3:44:52 PM

Latest Report: Sep 29, 2016 at 3:20 PM


Visibility: 10 mi

Pressure: 30.21 "Hg

Humidity: 34%

Dew Point: 46 °F

Location of ThônexLocation

Past Weather in Thônex — Graph

°F

Thônex Temperature Yesterday

Maximum temperature yesterday: 73 °F (at 3:50 PM)
Minimum temperature yesterday: 50 °F (at 4:20 AM)
Average temperature yesterday: 60 °F

High & Low Weather Summary for the Past Weeks

 TemperatureHumidityPressure
High82 °F (Sep 14, 3:20 PM)100% (Sep 15, 8:20 AM)30.48 "Hg (Sep 15, 8:20 AM)
Low46 °F (Sep 22, 5:20 AM)34% (Sep 25, 4:50 PM)29.80 "Hg (Sep 15, 12:50 AM)
Average60 °F80%30.13 "Hg
* Reported Sep 14 2:20 PM — Sep 29 2:20 PM, Thônex, Weather by CustomWeather, © 2016

Note: Actual official high and low records may vary slightly from our data, if they occured in-between our weather recording intervals... More about our weather records

Advertising

Thônex Weather History for the Previous 24 Hours

Scroll right to see more
 ConditionsComfort  
Time TempWeatherWind HumidityBarometerVisibility
2:20 PM
Thu, Sep 29
77 °FPassing clouds.13 mph39%30.24 "HgN/A
1:50 PM75 °FPassing clouds.17 mph41%30.27 "HgN/A
1:20 PM73 °FSunny.14 mph44%30.27 "Hg10 mi
12:50 PM73 °FSunny.14 mph47%30.30 "Hg10 mi
12:20 PM70 °FPassing clouds.7 mph57%30.30 "HgN/A
11:50 AM68 °FPassing clouds.5 mph60%30.30 "HgN/A
11:20 AM64 °FPassing clouds.6 mph64%30.33 "HgN/A
10:50 AM63 °FPassing clouds.6 mph68%30.33 "HgN/A
10:20 AM61 °FSunny.2 mph77%30.33 "Hg10 mi
9:50 AM59 °FSunny.2 mph77%30.33 "Hg10 mi
9:20 AM57 °FSunny.1 mph88%30.36 "Hg10 mi
8:50 AM54 °FSunny.2 mph94%30.36 "Hg10 mi
8:20 AM50 °FSunny.2 mph94%30.36 "Hg10 mi
7:50 AM52 °FSunny.3 mph94%30.36 "Hg10 mi
7:20 AM50 °FClear.3 mph94%30.36 "Hg10 mi
6:50 AM50 °FClear.3 mph94%30.36 "Hg10 mi
6:20 AM50 °FClear.3 mph94%30.36 "Hg10 mi
5:50 AM50 °FClear.2 mph100%30.36 "Hg10 mi
5:20 AM50 °FCool.1 mph100%30.36 "Hg6 mi
4:50 AM50 °FCool.2 mph100%30.36 "Hg5 mi
4:20 AM50 °FCool.2 mph100%30.36 "Hg4 mi
3:50 AM52 °FFog.1 mph100%30.39 "Hg2 mi
3:20 AM52 °FCool.1 mph100%30.39 "Hg4 mi
2:50 AM52 °FCool.2 mph100%30.39 "Hg5 mi
2:20 AM54 °FCool.2 mph94%30.39 "Hg6 mi
1:50 AM54 °FCool.3 mph94%30.39 "HgN/A
1:20 AM54 °FCool.1 mph94%30.39 "HgN/A
12:50 AM54 °FCool.2 mph100%30.39 "HgN/A
12:20 AM55 °FCool.1 mph94%30.42 "HgN/A
11:50 PM
Wed, Sep 28
55 °FCool.1 mph94%30.42 "HgN/A
11:20 PM55 °FClear.1 mph94%30.42 "Hg10 mi
10:50 PM57 °FClear.1 mph94%30.39 "Hg10 mi
10:20 PM57 °FClear.2 mph94%30.42 "Hg10 mi
9:50 PM59 °FClear.1 mph88%30.42 "Hg10 mi
9:20 PM61 °FClear.1 mph83%30.42 "Hg10 mi
8:50 PM61 °FClear.1 mph83%30.42 "Hg10 mi
8:20 PM63 °FPassing clouds.2 mph77%30.39 "HgN/A
7:50 PM64 °FClear.2 mph73%30.39 "Hg10 mi
7:20 PM66 °FClear.5 mph68%30.39 "Hg10 mi
6:50 PM68 °FSunny.3 mph69%30.39 "Hg10 mi
6:20 PM72 °FScattered clouds.5 mph61%30.39 "HgN/A
5:50 PM73 °FScattered clouds.6 mph53%30.39 "HgN/A
5:20 PM73 °FScattered clouds.5 mph50%30.39 "HgN/A
4:50 PM73 °FPassing clouds.3 mph47%30.39 "HgN/A
4:20 PM73 °FPassing clouds.2 mph50%30.39 "HgN/A
3:50 PM73 °FPassing clouds.5 mph50%30.39 "HgN/A
3:20 PM72 °FPassing clouds.5 mph53%30.42 "HgN/A
Weather by CustomWeather, © 2016

See weather overviewHow to use our weather pages